EW9447 Weather Reports


time (UTC)temp
C
wind
direction
speed
KPH
gust
KPH
rain 1hr
cm
rain 24hr
cm
rain mn
cm
humidity
%
barometer
mb
20260504081535 10 227 9.7 14.5 0.00 0.00 0.00 63 1000.6
20260504044539 11 238 9.7 12.9 0.00 0.00 0.00 53 1003.9
20260504043042 10 236 6.4 8.0 0.00 0.00 0.00 57 1004.0
20260504041536 9 266 0.0 3.2 0.00 0.00 0.00 57 1004.4
20260504040100 9 0 0.0 6.4 0.00 0.00 0.00 57 1004.6
20260504034538 9 195 3.2 4.8 0.00 0.00 0.00 56 1004.8
20260504033039 11 213 3.2 8.0 0.00 0.00 0.00 52 1005.1
20260504031548 11 0 0.0 3.2 0.00 0.00 0.00 51 1005.3
20260504030041 12 0 0.0 3.2 0.00 0.00 0.00 48 1005.5
20260504024542 13 231 0.0 8.0 0.00 0.00 0.00 45 1005.6
20260504023040 13 0 0.0 1.6 0.00 0.00 0.00 43 1005.5
20260504021539 14 0 0.0 3.2 0.00 0.00 0.00 42 1005.5
20260504020039 15 0 0.0 4.8 0.00 0.00 0.00 40 1005.5
20260504014540 16 0 0.0 0.0 0.00 0.00 0.00 38 1005.3
20260504013041 16 0 0.0 0.0 0.00 0.00 0.00 37 1005.5
20260504011541 18 0 0.0 0.0 0.00 0.00 0.00 35 1005.4
20260504010040 20 0 0.0 0.0 0.00 0.00 0.00 33 1005.7
20260504004539 21 0 0.0 3.2 0.00 0.00 0.00 32 1005.9
20260504003035 21 0 0.0 6.4 0.00 0.00 0.00 31 1005.8
20260504001543 22 323 1.6 11.3 0.00 0.00 0.00 30 1006.0
20260504000041 22 0 0.0 3.2 0.00 0.00 0.00 32 1006.0
20260503234600 22 0 0.0 9.7 0.00 0.00 0.00 32 1006.1
20260503233045 22 349 3.2 12.9 0.00 0.00 0.00 31 1006.1
20260503231539 22 301 4.8 24.1 0.00 0.00 0.00 30 1006.3
20260503230035 22 300 9.7 20.9 0.00 0.00 0.00 31 1006.3
20260503224541 22 55 3.2 19.3 0.00 0.00 0.00 31 1006.2
20260503223040 22 333 1.6 17.7 0.00 0.00 0.00 34 1006.3
20260503221544 22 280 8.0 22.5 0.00 0.00 0.00 33 1006.3
20260503220036 22 330 4.8 17.7 0.00 0.00 0.00 32 1006.4
20260503214542 22 321 9.7 25.7 0.00 0.00 0.00 36 1006.4
20260503213037 22 297 3.2 16.1 0.00 0.00 0.00 35 1006.5
20260503211541 22 293 6.4 19.3 0.00 0.00 0.00 34 1006.6
20260503210039 22 278 4.8 12.9 0.00 0.00 0.00 36 1006.8
20260503204542 22 304 3.2 14.5 0.00 0.00 0.00 36 1006.9
20260503203046 22 302 8.0 20.9 0.00 0.00 0.00 38 1006.9
20260503201533 22 32 1.6 12.9 0.00 0.00 0.00 35 1007.1
20260503200048 22 324 3.2 11.3 0.00 0.00 0.00 36 1007.3
20260503194541 22 8 4.8 20.9 0.00 0.00 0.00 35 1007.4
20260503193035 22 5 4.8 14.5 0.00 0.00 0.00 37 1007.5
20260503191536 22 336 4.8 14.5 0.00 0.00 0.00 36 1007.7
20260503190043 22 269 4.8 11.3 0.00 0.00 0.00 38 1007.6
20260503184542 21 295 4.8 19.3 0.00 0.00 0.00 38 1007.7
20260503183038 22 349 3.2 16.1 0.00 0.00 0.00 41 1007.8
20260503181536 21 27 4.8 17.7 0.00 0.00 0.00 40 1007.9
20260503180035 21 300 6.4 24.1 0.00 0.00 0.00 37 1007.9
20260503174543 21 311 3.2 11.3 0.00 0.00 0.00 41 1008.0
20260503173040 21 276 3.2 19.3 0.00 0.00 0.00 41 1008.0
20260503171545 21 17 3.2 12.9 0.00 0.00 0.00 41 1008.1